Weather History for Cherokee, IA

Change the Weather History Date:

Friday, March 28, 2014

  Actual Average Record
Temperature  
Mean Temperature 30 °F -  
Max Temperature 35 °F 54 °F 79 °F (1989)
Min Temperature 24 °F 29 °F 7 °F (1955)
Degree Days  
Heating Degree Days 36    
Moisture  
Dew Point 26 °F    
Average Humidity 83    
Maximum Humidity 94    
Minimum Humidity 70    
Precipitation  
Precipitation 0.00 in - - ()
Sea Level Pressure  
Sea Level Pressure 30.06 in    
Wind  
Wind Speed 8 mph (North)    
Max Wind Speed 15 mph    
Max Gust Speed 21 mph    
Visibility 10 miles    
Events      
Averages and records for this station are not official NWS values.
T = Trace of Precipitation, MM = Missing Value Source: NWS Daily Summary

Daily Weather History Graph

Daily Weather History Graph

Search for Another Location

Airport:

Trip Planner

Search our weather history database for the weather conditions in past years. The results will help you decide how hot, cold, wet, or windy it might be!

Date:

Astronomy

Mar. 28, 2014 Rise Set
Actual Time 7:11 AM CDT 7:43 PM CDT
Civil Twilight 6:43 AM CDT 8:12 PM CDT
Nautical Twilight 6:09 AM CDT 8:45 PM CDT
Astronomical Twilight 5:35 AM CDT 9:20 PM CDT
Moon 5:46 AM CDT (3/28) 5:39 PM CDT (3/28)
Length of Visible Light 13h 29m
Length of Day
12h 32m
Waning Crescent, 6% of the Moon is Illuminated
Mar 28
Waning Crescent
Mar 30
New
Apr 7
First Quarter
Apr 15
Full
Apr 22
Last Quarter

Hourly Weather History & Observations

Time (CDT) Temp. Windchill Dew Point Humidity Pressure Visibility Wind Dir Wind Speed Gust Speed Precip Events Conditions
12:15 AM 32.0 °F 22.5 °F 28.8 °F 88% 29.81 in 10.0 mi NNW 12.7 mph 17.3 mph N/A   Overcast
12:35 AM 32.0 °F 21.6 °F 28.2 °F 86% 29.81 in 10.0 mi North 15.0 mph 20.7 mph N/A   Overcast
12:55 AM 31.1 °F 21.4 °F 27.5 °F 87% 29.82 in 10.0 mi NNW 12.7 mph 19.6 mph N/A   Scattered Clouds
1:15 AM 30.9 °F 21.7 °F 27.5 °F 87% 29.83 in 10.0 mi NNW 11.5 mph - N/A   Clear
1:35 AM 30.6 °F 21.8 °F 27.3 °F 88% 29.84 in 10.0 mi North 10.4 mph - N/A   Clear
1:55 AM 30.2 °F 20.2 °F 27.3 °F 89% 29.85 in 10.0 mi North 12.7 mph - N/A   Clear
2:15 AM 30.0 °F 23.2 °F 27.0 °F 88% 29.87 in 10.0 mi North 6.9 mph - N/A   Clear
2:35 AM 29.7 °F 20.7 °F 26.6 °F 88% 29.87 in 10.0 mi North 10.4 mph - N/A   Clear
2:55 AM 29.3 °F 22.3 °F 26.4 °F 89% 29.89 in 10.0 mi NNW 6.9 mph - N/A   Clear
3:15 AM 29.1 °F 20.6 °F 26.1 °F 88% 29.89 in 10.0 mi North 9.2 mph - N/A   Clear
3:35 AM 28.8 °F 20.9 °F 25.7 °F 88% 29.89 in 10.0 mi North 8.1 mph - N/A   Clear
3:55 AM 28.9 °F 21.9 °F 25.7 °F 88% 29.90 in 10.0 mi North 6.9 mph - N/A   Clear
4:15 AM 28.4 °F 21.2 °F 25.7 °F 90% 29.91 in 10.0 mi North 6.9 mph - N/A   Clear
4:35 AM 28.0 °F 20.0 °F 25.3 °F 90% 29.92 in 10.0 mi North 8.1 mph - N/A   Clear
4:55 AM 27.5 °F 20.2 °F 24.8 °F 90% 29.94 in 10.0 mi NNW 6.9 mph - N/A   Clear
5:15 AM 26.6 °F 22.6 °F 24.1 °F 90% 29.94 in 10.0 mi North 3.5 mph - N/A   Clear
5:35 AM 26.6 °F 20.0 °F 24.6 °F 92% 29.93 in 10.0 mi North 5.8 mph - N/A   Clear
5:55 AM 26.2 °F 20.7 °F 23.9 °F 91% 29.96 in 10.0 mi NNW 4.6 mph - N/A   Clear
6:15 AM 25.5 °F 21.3 °F 23.2 °F 91% 29.98 in 10.0 mi NW 3.5 mph - N/A   Clear
6:35 AM 24.8 °F 19.1 °F 23.0 °F 93% 29.97 in 10.0 mi North 4.6 mph - N/A   Scattered Clouds
7:15 AM 24.3 °F 18.4 °F 22.6 °F 94% 29.99 in 10.0 mi NNW 4.6 mph - N/A   Scattered Clouds
7:35 AM 24.3 °F 18.4 °F 22.8 °F 94% 30.02 in 10.0 mi SW 4.6 mph - N/A   Overcast
7:55 AM 25.7 °F 21.5 °F 24.3 °F 94% 30.03 in 10.0 mi NW 3.5 mph - N/A   Overcast
8:15 AM 25.7 °F 18.0 °F 23.9 °F 93% 30.02 in 10.0 mi North 6.9 mph - N/A   Overcast
8:35 AM 26.6 °F 17.5 °F 24.4 °F 92% 30.02 in 10.0 mi North 9.2 mph - N/A   Scattered Clouds
8:55 AM 27.7 °F 18.8 °F 25.0 °F 90% 30.02 in 10.0 mi North 9.2 mph - N/A   Clear
9:15 AM 28.8 °F 20.9 °F 24.8 °F 85% 30.04 in 10.0 mi NNE 8.1 mph - N/A   Scattered Clouds
9:35 AM 29.7 °F - 25.2 °F 83% 30.06 in 10.0 mi Calm Calm - N/A   Mostly Cloudy
9:55 AM 30.6 °F 25.8 °F 25.5 °F 82% 30.07 in 10.0 mi NNW 4.6 mph - N/A   Overcast
10:15 AM 31.1 °F 24.5 °F 25.9 °F 81% 30.06 in 10.0 mi NE 6.9 mph - N/A   Overcast
10:35 AM 32.0 °F 24.8 °F 26.2 °F 79% 30.07 in 10.0 mi NE 8.1 mph - N/A   Overcast
10:55 AM 32.0 °F 24.8 °F 26.8 °F 81% 30.08 in 10.0 mi NNE 8.1 mph - N/A   Overcast
11:15 AM 32.4 °F 27.9 °F 27.0 °F 80% 30.08 in 10.0 mi NE 4.6 mph - N/A   Overcast
11:35 AM 34.2 °F 28.2 °F 29.1 °F 82% 30.07 in 10.0 mi ENE 6.9 mph - N/A   Overcast
11:55 AM 34.0 °F 27.2 °F 29.7 °F 84% 30.07 in 10.0 mi NNE 8.1 mph - N/A   Mostly Cloudy
12:15 PM 34.0 °F - 28.4 °F 80% 30.09 in 10.0 mi Calm Calm - N/A   Mostly Cloudy
12:35 PM 34.7 °F 31.8 °F 27.0 °F 73% 30.10 in 10.0 mi North 3.5 mph - N/A   Overcast
12:55 PM 35.1 °F 32.2 °F 28.0 °F 76% 30.11 in 10.0 mi NE 3.5 mph - N/A   Overcast
1:15 PM 35.1 °F - 26.8 °F 72% 30.11 in 10.0 mi Calm Calm - N/A   Overcast
1:35 PM 35.1 °F - 26.1 °F 70% 30.12 in 10.0 mi Calm Calm - N/A   Overcast
1:55 PM 34.0 °F 29.8 °F 25.5 °F 71% 30.12 in 10.0 mi NNE 4.6 mph - N/A   Overcast
2:15 PM 34.2 °F 30.0 °F 25.7 °F 71% 30.11 in 10.0 mi NNW 4.6 mph - N/A   Overcast
2:35 PM 34.3 °F 30.2 °F 25.7 °F 71% 30.12 in 10.0 mi NNW 4.6 mph - N/A   Overcast
2:55 PM 34.0 °F 29.8 °F 25.7 °F 72% 30.12 in 10.0 mi North 4.6 mph - N/A   Overcast
3:15 PM 34.0 °F 31.0 °F 25.9 °F 72% 30.12 in 10.0 mi North 3.5 mph - N/A   Overcast
3:35 PM 34.7 °F - 26.6 °F 72% 30.12 in 10.0 mi Calm Calm - N/A   Overcast
3:55 PM 35.2 °F - 26.6 °F 71% 30.12 in 10.0 mi Calm Calm - N/A   Overcast
4:15 PM 35.2 °F 30.3 °F 27.9 °F 74% 30.12 in 10.0 mi ENE 5.8 mph - N/A   Overcast
4:35 PM 34.9 °F 30.8 °F 27.5 °F 74% 30.13 in 10.0 mi NNE 4.6 mph - N/A   Overcast
4:55 PM 35.1 °F 32.2 °F 27.3 °F 73% 30.14 in 10.0 mi NE 3.5 mph - N/A   Overcast
5:15 PM 35.6 °F 31.7 °F 29.3 °F 78% 30.14 in 10.0 mi NE 4.6 mph - N/A   Overcast
5:35 PM 34.5 °F 30.4 °F 28.4 °F 78% 30.14 in 10.0 mi NNE 4.6 mph - N/A   Overcast
5:55 PM 33.8 °F 28.6 °F 28.6 °F 81% 30.15 in 10.0 mi NE 5.8 mph - N/A   Overcast
6:15 PM 33.6 °F 26.8 °F 29.3 °F 84% 30.15 in 10.0 mi NNE 8.1 mph - N/A   Overcast
6:35 PM 32.9 °F 25.9 °F 27.5 °F 81% 30.15 in 10.0 mi NNE 8.1 mph - N/A   Overcast
6:55 PM 32.5 °F 27.1 °F 27.1 °F 80% 30.16 in 10.0 mi North 5.8 mph - N/A   Overcast
7:15 PM 32.7 °F 28.3 °F 27.5 °F 81% 30.17 in 10.0 mi NNE 4.6 mph - N/A   Overcast
7:35 PM 32.4 °F 26.9 °F 27.0 °F 80% 30.17 in 10.0 mi NNE 5.8 mph - N/A   Overcast
7:55 PM 32.2 °F 26.7 °F 26.6 °F 80% 30.17 in 10.0 mi NNE 5.8 mph - N/A   Overcast
8:15 PM 32.2 °F 25.8 °F 27.5 °F 83% 30.18 in 10.0 mi NNE 6.9 mph - N/A   Overcast
8:35 PM 32.0 °F 28.7 °F 27.0 °F 82% 30.19 in 10.0 mi NNE 3.5 mph - N/A   Overcast
8:55 PM 32.0 °F 28.7 °F 27.0 °F 82% 30.20 in 10.0 mi North 3.5 mph - N/A   Overcast
9:15 PM 32.0 °F 27.5 °F 27.0 °F 82% 30.21 in 10.0 mi North 4.6 mph - N/A   Overcast
9:35 PM 32.0 °F 26.4 °F 27.3 °F 83% 30.23 in 10.0 mi North 5.8 mph - N/A   Overcast
9:55 PM 31.6 °F 26.0 °F 27.5 °F 85% 30.24 in 10.0 mi North 5.8 mph - N/A   Overcast
10:15 PM 31.1 °F 25.4 °F 27.0 °F 85% 30.23 in 10.0 mi NNE 5.8 mph - N/A   Overcast
10:35 PM 31.1 °F 25.4 °F 27.0 °F 85% 30.23 in 10.0 mi NNE 5.8 mph - N/A   Overcast
10:55 PM 30.9 °F 26.2 °F 27.1 °F 86% 30.24 in 10.0 mi NNE 4.6 mph - N/A   Overcast
11:15 PM 30.9 °F 25.2 °F 27.1 °F 86% 30.24 in 10.0 mi NNE 5.8 mph - N/A   Overcast
11:35 PM 30.2 °F 25.4 °F 26.6 °F 86% 30.26 in 10.0 mi North 4.6 mph - N/A   Overcast
11:55 PM 29.7 °F 22.8 °F 26.4 °F 88% 30.26 in 10.0 mi North 6.9 mph - N/A   Overcast